Probability
0 0 0 0 0 0 0 0 0 0 0 0 0 0 0 0 0 0 0 0 0 0 0 0 0 0 0 0 0 0 0 0 0 0 0 0 0 0
0 0 0 0 0 0 0 0 0 0 0 0 0 0 0 0 0 0 0 0 0 0 0 0 0 0 0 0 0 0 0 0 0 0 0 0 0 0
0 0 0 0 0 0 0 0 0 0 0 0 0 0 0 0 0 0 0 0 0 0 0 0 0 0 0 0 0 0 0 0 0 0 0 0 0 0
0 0 0 0 0 0 0 0 0 0 0 0 0 0 0 0 0 0 0 0 0 0 0 0 0 0 0 0 0 0 0 0 0 0 0 0 0 0
0 0 0 0 0 0 0 0 0 0 0 0 0 0 0 0 0 0 0 0 0 0 0 0 0 0 0 0 0 0 0 0 0 0 0 0 0 0
0 0 0 0 0 0 0 0 0 0 0 0 0 0 0 0 0 0 0 0 0 0 0 0 0 0 0 0 0 0 0 0 0 0 0 0 0 0
0 0 0 0 0 0 0 0 0 0 0 0 0 0 0 0 0 0 0 0 0 0 0 0 0 0 0 0 0 0 0 0 0 0 0 0 0 0
0 0 0 0 0 0 0 0 0 0 0 0 0 0 0 0 0 0 0 0 0 0 0 0 0 0 0 0 0 0 0 0 0 0 0 0 0 0
0 0 0 0 0 0 0 0 0 0 0 0 0 0 0 0 0 0 0 0 0 0 0 0 0 0 0 0 0 0 0 0 0 0 0 0 0 0
0 0 0 0 0 0 0 0 0 0 0 0 0 0 0 0 0 0 0 0 0 0 0 0 0 0 0 0 0 0 0 0 0 0 0 0 0 0
0 0 0 0 0 0 0 0 0 0 0 0 0 0 0 0 0 0 0 0 0 0 0 0 0 0 0 0 0 0 0 0 0 0 0 0 0 0
0 0 0 0 0 0 0 0 0 0 0 0 0 0 0 0 0 0 0 0 0 0 0 0 0 0 0 0 0 0 0 0 0 0 0 0 0 0
0 0 0 0 0 0 0 0 0 0 0 0 0 0 0 0 0 0 0 0 0 0 0 0 0 0 0 0 0 0 0 0 0 0 0 0 0 0
0 0 0 0 0 0 0 0 0 0 0 0 0 0 0 0 0 0 0 0 0 0 0 0 0 0 0 0 0 0 0 0 0 0 0 0 0 0
0 0 0 0 0 0 0 0 0 0 0 0 0 0 0 0 0 0 0 0 0 0 0 0 0 0 0 0 0 0 0 0 0 0 0 0 0 0
0 0 0 0 0 0 0 0 0 0 0 0 0 0 0 0 0 0 0 0 0 0 0 0 0 0 0 0 0 0 0 0 0 0 0 0 0 0
0 0 0 0 0 0 0 0 0 0 0 0 0 0 0 0 0 0 0 0 0 0 0 0 0 0 0 0 0 0 0 0 0 0 0 0 0 0
0 0 0 0 0 0 0 0 0 0 0 0 0 0 0 0 0 0 0 0 0 0 0 0 0 0 0 0 0 0 0 0 0 0 0 0 0 0
0 0 0 0 0 0 0 0 0 0 0 0 0 0 0 0 0 0 0 0 0 0 0 0 0 0 0 0 0 0 0 0 0 0 0 0 0 0
0 0 0 0 0 0 0 0 0 0 0 0 0 0 0 0 0 0 0 0 0 0 0 0 0 0 0 0 0 0 0 0 0 0 0 0 0 0
0 0 0 0 0 0 0 0 0 0 0 0 0 0 0 0 0 0 0 0 0 0 0 0 0 0 0 0 0 0 0 0 0 0 0 0 0 0
0 0 0 0 0 0 0 0 0 0 0 0 0 0 0 0 0 0 0 0 0 0 0 0 0 0 0 0 0 0 0 0 0 0 0 0 0 0
0 0 0 0 0 0 0 0 0 0 0 0 0 0 0 0 0 0 0 0 0 0 0 0 0 0 0 0 0 0 0 0 0 0 0 0 0 0
Height
5491 5474 5457 5439 5422 5404 5388 5371 5358 5350 5346 5334 5319 5305 5293 5285 5277 5270 5264 5260 5258 5261 5269 5281 5295 5312 5332 5355 5380 5407 5434 5464 5494 5525 5555 5581 5606 5628
5479 5462 5445 5428 5412 5395 5379 5364 5349 5336 5331 5324 5311 5298 5286 5276 5268 5261 5255 5251 5249 5250 5257 5268 5281 5298 5316 5337 5362 5389 5417 5447 5478 5509 5538 5565 5590 5612
5466 5451 5434 5417 5402 5386 5371 5356 5342 5328 5319 5314 5302 5290 5279 5269 5260 5252 5246 5242 5240 5240 5245 5255 5268 5284 5302 5322 5346 5372 5400 5431 5462 5494 5522 5550 5576 5599
5456 5440 5424 5407 5392 5376 5362 5348 5334 5321 5310 5303 5295 5283 5272 5261 5253 5245 5238 5233 5230 5230 5233 5242 5254 5270 5288 5308 5331 5357 5385 5415 5447 5479 5509 5537 5562 5584
5445 5429 5414 5397 5383 5368 5354 5340 5327 5314 5302 5293 5285 5275 5265 5254 5245 5238 5231 5225 5221 5220 5222 5230 5242 5258 5276 5295 5318 5343 5371 5403 5435 5465 5493 5521 5547 5572
5434 5419 5404 5388 5374 5360 5347 5333 5319 5307 5296 5285 5276 5267 5257 5247 5237 5230 5223 5217 5213 5211 5212 5219 5230 5245 5263 5284 5307 5332 5360 5388 5419 5450 5479 5507 5534 5559
5424 5409 5394 5379 5365 5350 5336 5323 5310 5299 5288 5278 5268 5259 5249 5239 5230 5222 5215 5210 5205 5202 5203 5209 5220 5235 5253 5274 5297 5321 5348 5377 5407 5437 5466 5494 5521 5546
5416 5401 5386 5371 5357 5343 5329 5315 5302 5290 5280 5270 5261 5251 5242 5232 5223 5215 5208 5203 5199 5197 5196 5202 5211 5227 5245 5265 5288 5312 5338 5366 5396 5426 5455 5482 5509 5534
5406 5392 5378 5364 5350 5337 5324 5310 5297 5284 5274 5264 5255 5245 5236 5227 5217 5210 5202 5197 5194 5191 5192 5197 5206 5221 5238 5258 5280 5303 5328 5355 5384 5413 5442 5470 5497 5522
5397 5384 5371 5357 5343 5330 5319 5306 5292 5280 5270 5260 5250 5240 5231 5221 5212 5205 5198 5193 5190 5188 5189 5194 5202 5215 5231 5251 5273 5296 5320 5346 5374 5402 5430 5458 5485 5510
5388 5375 5362 5350 5337 5325 5313 5300 5288 5277 5266 5255 5245 5235 5226 5217 5208 5201 5195 5191 5188 5187 5188 5192 5200 5211 5227 5246 5267 5290 5313 5338 5364 5391 5419 5446 5473 5498
5381 5368 5355 5343 5330 5317 5306 5294 5284 5273 5263 5253 5242 5232 5223 5214 5206 5199 5194 5190 5188 5188 5190 5193 5200 5210 5226 5242 5261 5283 5305 5329 5354 5380 5408 5434 5460 5486
5374 5361 5349 5337 5324 5312 5300 5289 5278 5268 5259 5249 5239 5230 5221 5213 5205 5199 5194 5191 5189 5190 5192 5196 5203 5212 5224 5240 5257 5277 5298 5321 5345 5370 5397 5423 5450 5476
5367 5355 5343 5331 5319 5308 5296 5285 5275 5264 5255 5246 5237 5228 5220 5212 5205 5200 5196 5193 5192 5193 5195 5200 5206 5215 5226 5239 5255 5273 5293 5314 5337 5362 5388 5414 5439 5465
5360 5348 5337 5326 5314 5303 5292 5282 5272 5262 5252 5244 5235 5227 5219 5212 5206 5201 5197 5195 5195 5196 5199 5204 5210 5219 5229 5241 5254 5270 5288 5308 5330 5354 5378 5404 5431 5456
5352 5342 5331 5320 5309 5299 5288 5278 5268 5258 5250 5242 5234 5226 5219 5213 5207 5203 5200 5198 5199 5200 5203 5208 5214 5222 5232 5242 5254 5269 5285 5304 5324 5347 5371 5396 5421 5447
5346 5336 5326 5316 5305 5294 5284 5274 5265 5256 5248 5241 5233 5227 5220 5214 5209 5205 5203 5202 5202 5204 5207 5212 5218 5225 5234 5243 5255 5268 5284 5301 5321 5341 5364 5389 5414 5440
5340 5331 5321 5312 5302 5292 5282 5273 5263 5255 5247 5240 5233 5227 5221 5216 5212 5208 5206 5205 5206 5208 5211 5216 5222 5229 5237 5247 5256 5268 5282 5298 5316 5336 5358 5383 5409 5434
5335 5326 5317 5308 5298 5288 5279 5270 5262 5253 5246 5239 5234 5228 5223 5218 5214 5211 5209 5209 5210 5212 5215 5219 5225 5232 5239 5247 5256 5266 5280 5294 5310 5330 5353 5379 5405 5430
5329 5321 5312 5304 5295 5285 5276 5268 5259 5252 5245 5239 5233 5229 5224 5220 5216 5214 5212 5212 5212 5214 5217 5221 5227 5232 5239 5246 5254 5264 5276 5290 5306 5327 5350 5374 5398 5420
5324 5316 5308 5300 5291 5282 5274 5265 5258 5250 5244 5238 5233 5229 5225 5222 5218 5216 5214 5214 5214 5216 5219 5222 5227 5232 5237 5244 5253 5263 5274 5287 5304 5322 5344 5365 5386 5407
5320 5312 5304 5296 5288 5280 5271 5263 5256 5249 5243 5238 5233 5229 5225 5222 5220 5218 5216 5216 5216 5217 5220 5223 5226 5231 5236 5243 5251 5260 5271 5284 5299 5316 5335 5358 5379 5405
5315 5308 5301 5293 5285 5277 5269 5262 5254 5248 5242 5237 5233 5229 5226 5223 5221 5219 5218 5217 5217 5218 5220 5223 5226 5230 5234 5240 5248 5256 5267 5280 5294 5312 5333 5355 5379 5404
Wind_Speed
80 77 76 75 73 71 70 68 66 60 51 48 50 52 53 50 46 42 34 30 32 45 59 70 80 90 99 107 116 124 130 132 130 126 121 115 109 101
78 75 73 73 70 69 67 65 63 61 55 49 48 49 50 49 46 42 36 30 29 39 55 69 78 88 97 105 114 121 128 132 131 127 123 118 112 104
77 74 72 71 69 67 65 63 60 59 56 49 48 48 48 47 45 42 37 32 29 35 51 66 76 86 96 104 113 121 128 133 133 129 124 120 115 107
75 72 70 69 67 65 64 61 58 57 55 51 47 47 46 46 43 41 38 34 29 32 45 63 75 85 95 103 112 119 127 133 134 130 125 121 117 111
73 70 68 68 65 63 62 60 57 54 53 51 48 46 45 44 42 39 36 33 30 29 40 58 72 83 93 101 110 119 126 133 134 131 127 123 118 112
71 68 67 66 64 62 60 58 56 53 51 50 48 45 44 43 42 39 34 32 29 28 35 51 68 81 91 100 107 116 125 132 135 132 128 124 120 114
69 66 64 63 62 61 60 59 55 52 50 50 48 45 44 43 42 39 34 30 27 26 31 45 62 77 88 97 105 113 122 130 134 132 129 125 121 116
67 64 62 62 61 59 58 57 55 52 50 49 48 46 44 43 41 38 33 29 25 25 28 39 56 70 83 93 101 109 119 127 132 132 129 126 122 118
65 63 61 60 59 57 56 55 52 50 49 49 47 45 43 41 39 36 31 27 23 22 24 33 48 62 76 87 97 105 114 124 130 131 130 127 123 119
63 61 59 58 57 56 54 52 50 48 47 46 45 43 42 40 37 33 28 23 20 19 20 28 41 54 68 80 92 101 109 120 127 130 129 127 124 120
60 59 58 56 55 54 53 51 48 45 44 43 43 42 39 37 34 30 24 20 16 15 18 26 37 48 59 72 84 95 103 113 123 128 129 128 125 121
58 56 55 54 53 52 51 49 47 43 41 40 40 39 37 35 31 27 21 16 13 12 17 25 34 44 52 64 76 87 97 107 117 124 128 127 125 122
55 54 53 52 51 50 49 48 46 42 39 39 38 36 34 31 28 23 18 13 9 12 18 26 34 42 50 57 68 80 90 101 112 121 125 127 125 123
53 52 51 50 49 48 47 45 44 41 38 37 36 34 32 29 25 20 15 10 7 12 19 26 34 41 48 53 61 72 82 94 106 116 122 125 125 123
51 50 49 48 48 47 45 43 42 39 37 35 33 32 29 26 22 17 12 7 7 13 20 27 34 40 46 51 56 65 75 87 100 112 119 124 125 123
49 48 48 47 46 46 44 42 41 38 35 33 31 29 27 24 19 14 9 5 7 13 21 28 34 39 44 49 54 60 69 80 94 106 116 122 124 123
47 46 45 45 44 44 42 41 39 36 34 31 28 27 25 21 17 13 7 3 8 14 21 27 33 38 42 46 51 56 64 74 86 100 111 119 123 122
44 44 43 42 42 41 40 38 37 34 31 28 26 24 22 19 15 11 6 2 7 14 20 26 32 35 39 42 47 52 59 68 80 93 107 116 121 121
42 42 41 40 40 40 38 37 35 32 29 26 23 21 19 18 14 10 5 2 6 13 19 24 29 34 36 40 45 51 57 65 75 87 101 111 117 119
40 40 39 39 39 38 37 35 33 31 27 24 22 19 17 15 13 10 5 2 6 12 17 22 27 31 35 39 44 49 56 62 71 81 95 106 113 117
38 38 37 37 37 37 36 34 32 29 26 22 20 17 15 13 11 9 6 1 4 10 15 19 23 27 32 37 43 49 54 60 68 77 88 100 108 114
35 36 35 35 35 35 34 33 31 28 25 22 19 17 14 12 10 8 6 1 4 8 11 15 19 23 27 34 40 48 55 60 67 75 85 95 103 110
33 34 33 33 34 34 33 32 30 27 24 21 17 15 12 10 9 7 4 1 2 6 9 11 15 18 23 30 39 47 55 61 67 74 81 90 98 103
Wind_Direction
327 328 328 328 329 328 328 328 327 329 331 325 321 319 319 319 319 316 306 288 256 230 218 213 210 208 206 205 205 204 203 201 200 200 200 200 200 200
327 328 329 329 330 329 329 328 327 327 330 328 324 321 320 319 317 316 309 293 266 234 219 213 210 208 206 204 204 203 203 201 199 199 200 200 200 200
327 329 329 329 330 330 330 329 327 326 328 330 326 323 322 319 317 314 310 297 273 242 222 214 210 208 206 204 203 202 202 200 199 199 199 199 199 199
327 329 329 330 331 331 330 329 327 326 327 329 328 324 322 320 317 314 309 301 281 250 226 215 210 208 206 204 203 202 202 200 198 198 199 199 199 199
327 329 330 330 331 331 331 330 328 327 327 328 328 326 324 321 319 315 310 302 286 259 231 217 211 208 206 205 203 202 201 200 198 197 198 199 199 199
327 329 330 331 331 331 331 331 329 328 327 328 328 326 325 323 320 317 311 302 288 265 235 219 212 209 206 205 204 202 201 199 197 197 198 198 199 198
327 329 330 331 331 332 332 332 331 329 329 329 329 328 327 325 322 319 312 303 289 269 238 220 213 209 207 205 204 203 201 199 197 197 197 198 198 198
327 329 331 331 332 333 333 333 331 330 330 330 330 329 328 325 323 320 313 304 290 269 241 220 213 209 207 205 204 203 201 199 197 196 197 198 198 198
327 330 331 332 332 334 334 334 332 330 330 329 330 329 327 326 323 320 313 305 290 268 242 219 211 208 206 205 204 203 202 199 198 196 197 197 198 198
327 330 332 333 333 334 335 335 334 332 331 330 330 329 328 327 324 321 314 304 288 266 236 214 207 204 205 204 204 203 202 200 198 197 197 197 198 198
327 330 332 333 333 334 336 336 335 333 331 331 332 331 331 330 327 323 316 305 287 258 225 206 200 199 201 201 203 203 203 201 199 197 197 197 197 198
327 330 331 333 334 335 337 337 337 335 333 333 333 333 333 332 330 326 319 307 283 241 213 199 193 192 194 198 200 202 202 202 200 198 197 197 197 198
328 330 332 333 335 336 337 338 338 337 337 337 338 337 336 335 332 327 320 307 272 223 202 193 188 187 189 193 197 200 201 201 200 199 197 197 197 198
328 330 332 334 335 337 338 338 339 339 339 340 340 340 339 337 334 329 320 302 255 210 195 189 186 184 185 189 193 197 200 201 201 199 198 197 197 198
328 331 333 335 336 338 338 339 340 341 341 341 342 342 342 341 339 333 322 293 231 201 191 187 184 182 183 186 190 194 198 200 201 200 198 198 197 198
329 331 334 335 337 338 339 340 342 343 343 344 344 345 346 346 344 339 326 276 213 196 189 186 184 182 183 185 188 192 196 199 200 200 199 198 198 198
329 331 334 335 337 339 340 341 342 343 344 345 347 349 349 350 350 347 334 260 204 193 188 186 184 183 184 185 187 190 194 197 200 200 200 198 198 198
329 331 334 335 338 339 340 341 342 343 345 346 348 350 353 354 354 352 344 249 196 191 189 188 186 185 185 187 187 189 192 196 198 200 200 199 198 198
328 331 334 336 338 340 341 342 343 344 346 347 348 350 354 357 358 356 342 249 195 190 190 190 189 188 188 188 189 189 190 194 196 198 199 199 198 198
328 331 334 336 339 341 342 343 345 345 346 347 348 350 354 357 1 4 357 259 203 194 193 193 193 193 193 192 191 190 190 192 194 197 198 199 199 199
328 331 334 337 339 342 343 345 346 346 346 347 348 349 350 355 3 10 13 26 188 191 194 195 197 198 197 195 192 190 189 190 192 194 196 198 199 200
328 331 335 337 340 343 345 346 347 347 347 347 347 348 350 351 356 360 2 1 190 186 190 193 198 201 200 196 194 191 189 188 189 191 194 197 199 200
328 332 335 338 341 344 345 347 347 347 347 347 347 348 350 352 358 4 7 48 161 176 183 191 196 199 199 197 194 191 188 187 187 189 192 195 197 198